Temperature
22 21 20 20 19 19 19 18 18 18 18 17 17 17 17 17 16 16 16 16 16 16 16 16 16 16 16 16 16 16 16 16 16 17 17 17 17 17 17 17 17 17 17
22 21 21 20 20 19 19 18 18 18 18 18 17 17 17 17 17 16 17 16 16 16 16 16 16 16 16 16 16 16 16 16 16 17 17 18 17 17 17 17 16 16 16
23 22 21 20 20 19 19 19 18 18 18 18 17 17 17 17 17 16 16 16 16 16 16 16 16 16 16 16 16 16 16 16 16 16 17 17 18 18 17 17 17 16 16
23 22 21 21 20 19 19 19 18 18 18 18 17 17 17 17 17 16 16 16 16 16 16 16 16 16 16 16 16 16 16 16 16 16 16 16 16 17 17 17 17 16 16
24 23 22 21 20 20 19 19 19 18 18 18 18 17 17 17 17 16 16 16 16 16 16 16 16 16 16 16 16 16 16 16 16 16 16 16 16 16 17 17 17 16 16
24 23 22 21 20 20 19 19 19 18 18 18 18 17 17 17 17 16 16 16 16 16 16 16 16 16 16 16 16 15 15 16 16 16 16 16 16 16 17 17 16 16 16
24 23 22 21 21 20 20 19 19 18 18 18 18 17 17 17 17 16 16 16 16 16 16 16 16 16 16 15 15 15 15 15 15 15 15 16 16 16 16 16 16 16 16
24 23 23 22 21 20 20 19 19 19 18 18 18 18 17 17 17 16 16 16 16 16 16 16 16 15 15 15 15 15 15 15 15 15 15 15 15 15 16 16 16 16 16
24 24 23 22 21 20 20 19 19 19 18 18 18 18 17 17 17 16 16 16 16 16 16 16 15 15 15 15 15 15 15 15 15 15 15 15 15 15 15 15 15 16 16
24 24 23 22 22 21 20 19 19 19 18 18 18 18 17 17 17 16 16 16 16 16 16 16 15 15 15 15 15 15 15 15 15 15 15 15 15 15 15 15 15 15 16
25 24 23 22 21 21 20 19 19 19 18 18 18 17 17 17 17 16 16 16 16 16 16 16 15 15 15 15 15 15 15 15 15 15 15 15 15 15 15 15 15 15 15
24 24 23 22 21 21 20 20 19 19 19 18 18 18 17 17 17 16 16 16 16 16 16 15 15 15 15 15 15 15 14 14 14 14 14 14 15 14 15 15 15 15 15
24 23 22 22 21 20 20 20 19 19 18 18 18 18 17 17 17 16 16 16 16 16 16 15 15 15 15 15 15 14 14 14 14 14 14 14 14 14 14 14 15 14 14
23 23 22 21 20 20 20 19 19 19 18 18 18 17 17 17 16 16 16 16 16 16 15 15 15 15 15 15 14 14 14 14 14 14 14 14 14 14 14 14 14 14 14
23 22 22 21 20 20 19 19 19 19 18 18 18 17 17 16 16 16 16 16 16 15 15 15 15 15 15 15 14 14 14 14 14 14 14 14 14 14 14 14 14 13 14
23 22 21 20 20 20 19 19 19 19 18 18 18 17 17 16 16 16 16 16 15 15 15 15 15 15 15 15 15 14 14 14 14 13 13 13 14 14 13 13 13 13 13
22 21 21 20 20 20 19 19 19 18 18 18 17 17 17 16 16 16 16 15 15 15 15 15 15 15 15 15 14 14 14 14 14 13 13 13 13 13 13 13 13 13 13
22 21 21 20 20 20 20 19 19 18 18 17 17 17 16 16 16 16 16 16 15 15 15 15 14 14 14 14 14 14 13 13 13 13 13 13 13 12 12 12 12 12 13
21 21 21 21 20 20 19 19 18 18 17 17 17 17 16 16 16 15 15 15 15 15 15 14 14 14 14 14 14 14 13 13 13 13 13 13 12 12 12 12 12 12 12
20 20 20 20 19 19 19 18 18 18 17 17 16 16 16 16 15 15 15 15 15 15 14 14 14 14 14 14 14 13 13 13 13 13 13 13 12 12 12 12 12 12 12
20 20 19 19 19 18 18 18 18 17 17 16 16 16 16 16 15 15 15 15 15 14 14 14 14 14 14 13 13 13 13 13 13 13 13 12 12 12 12 12 12 12 12
19 19 19 18 18 18 18 17 17 17 16 16 16 16 16 15 15 15 15 15 15 14 14 14 14 13 13 13 13 13 13 12 12 12 12 12 12 12 12 12 12 12 12
19 18 18 18 17 17 17 17 17 16 16 16 16 15 15 15 15 15 15 15 14 14 14 14 14 13 13 13 13 12 12 12 12 12 12 12 12 11 11 11 11 11 11
18 18 18 17 17 17 17 16 16 16 16 16 15 15 15 15 15 15 15 14 14 14 14 14 13 13 13 12 12 12 12 12 12 11 11 12 11 11 11 11 11 11 11
18 18 18 17 17 16 16 16 16 16 16 15 15 15 15 15 15 15 14 14 14 13 13 13 13 13 13 12 12 12 12 11 11 11 11 11 11 11 11 11 11 11 11
17 17 17 17 17 16 16 16 16 15 15 15 15 15 15 15 15 14 14 14 14 13 13 13 13 12 12 12 12 12 12 11 11 11 11 11 11 11 11 11 11 11 11
Wind_Speed
6 7 6 6 5 5 4 4 4 3 3 3 3 2 2 1 1 0 1 1 1 1 2 2 1 2 2 2 2 2 2 2 2 2 2 2 3 3 3 3 3 3 4
7 7 7 6 6 5 5 5 4 4 4 3 2 1 1 1 1 1 0 0 1 2 1 2 2 2 1 1 2 2 3 2 2 2 2 2 3 3 3 3 3 3 3
8 8 8 7 6 6 6 4 4 4 4 3 3 2 2 1 1 1 1 0 1 1 2 2 3 2 2 1 2 2 2 2 2 1 2 2 2 1 3 3 3 2 2
9 9 8 7 7 7 6 5 5 4 4 4 3 3 3 2 2 1 0 0 1 1 1 2 2 2 2 1 2 1 2 3 2 1 2 2 2 2 1 3 3 3 3
9 9 8 8 7 7 6 6 5 5 4 4 3 3 3 2 1 1 1 1 0 1 1 1 2 2 2 1 2 1 2 2 2 2 1 2 2 4 3 2 2 2 2
9 9 8 8 7 7 7 6 6 5 5 4 4 3 3 2 2 2 1 2 1 1 1 1 1 2 2 1 1 2 1 2 2 2 2 2 2 3 3 3 3 2 2
9 10 9 9 8 8 7 6 6 6 5 5 4 4 3 3 3 3 2 2 1 1 1 1 1 2 2 1 2 2 2 2 2 3 3 3 3 3 3 3 3 3 2
9 10 10 9 9 8 8 7 7 6 6 5 4 3 3 3 2 2 2 1 1 1 1 1 1 1 2 2 1 2 2 1 2 3 3 3 3 3 3 3 3 3 3
9 10 9 9 9 9 8 7 7 6 5 5 5 4 3 2 2 1 2 1 1 1 1 1 1 1 1 2 2 1 2 2 2 2 2 3 2 3 3 3 4 4 4
9 9 9 9 9 8 8 7 7 6 5 5 4 4 3 3 2 2 1 1 1 1 1 1 1 1 1 1 2 2 1 2 2 2 2 2 3 2 2 3 3 4 4
8 8 8 9 9 8 8 8 7 6 5 5 5 4 3 3 3 2 2 1 1 1 1 1 1 1 1 1 2 3 2 2 2 2 2 2 3 3 2 2 3 3 3
8 8 8 9 9 8 8 8 7 6 6 5 5 5 4 3 3 2 2 2 1 1 1 1 1 2 2 2 2 3 2 2 3 3 2 2 2 3 4 3 3 2 2
7 7 8 8 8 8 7 7 7 6 6 6 5 5 4 4 3 2 2 2 1 1 1 0 1 1 2 2 2 2 3 3 3 3 3 3 3 3 3 3 3 2 2
7 7 7 8 7 7 7 6 6 6 6 6 5 5 4 3 3 3 2 2 1 1 1 0 1 1 1 2 2 2 2 2 3 3 3 3 3 3 3 3 3 3 2
7 7 7 7 7 7 7 7 6 6 6 6 5 4 4 3 3 3 2 2 1 1 1 1 1 1 1 1 2 3 2 2 2 2 2 1 2 3 3 3 2 2 2
7 7 7 7 7 7 7 7 7 6 6 6 5 4 4 4 3 3 2 2 2 1 1 1 1 1 1 2 2 4 2 2 2 2 2 1 1 1 1 2 3 4 3
7 7 7 6 7 7 7 7 7 6 6 5 5 5 4 4 4 3 2 2 2 2 1 1 1 1 1 2 1 3 3 2 2 2 2 2 1 1 0 1 2 1 1
6 6 6 6 6 7 7 6 7 6 6 5 5 5 4 4 4 3 3 2 2 2 2 1 1 1 1 1 1 3 3 1 1 1 1 2 1 1 1 1 1 2 2
5 5 5 6 6 6 6 7 7 6 6 5 5 5 4 4 4 4 3 3 2 2 2 2 1 1 0 1 1 4 2 1 2 1 1 2 1 2 1 2 2 2 2
4 4 5 5 6 6 6 6 6 6 6 5 5 4 4 4 3 3 3 2 2 3 3 2 2 1 1 2 1 4 3 2 2 2 1 2 0 2 1 3 3 4 3
4 5 5 5 6 6 6 6 6 5 5 5 4 4 4 4 3 2 2 2 2 2 2 2 2 2 2 4 3 3 3 3 3 2 1 1 3 2 3 4 4 3 4
5 5 5 5 5 5 6 6 5 4 4 5 4 4 4 3 3 2 2 2 2 3 3 2 2 2 2 1 3 4 5 6 3 3 2 1 3 4 5 4 2 3 4
5 5 5 5 5 5 5 5 4 4 4 5 4 4 3 3 2 3 2 3 3 2 2 2 2 1 1 2 4 5 5 5 4 2 2 1 3 5 5 6 6 5 4
4 4 5 5 4 4 4 4 5 5 4 4 4 4 3 3 3 2 2 2 2 2 1 2 2 2 1 1 1 2 2 4 4 3 2 5 6 6 3 3 5 4 3
4 4 4 5 5 5 4 4 5 5 4 4 3 3 3 2 2 2 1 1 1 1 2 2 2 2 2 0 1 3 2 3 3 3 4 3 3 3 3 3 3 3 4
4 4 4 4 4 5 5 4 4 4 4 3 3 3 2 2 2 2 2 2 2 3 3 2 3 2 1 2 0 2 2 2 3 4 4 3 3 3 3 3 3 3 4
Wind_Direction
175 169 170 171 168 168 169 174 182 184 191 192 206 194 193 195 219 248 354 325 309 307 300 308 295 284 280 287 280 275 255 255 256 252 237 215 208 209 206 213 217 203 211
173 172 173 173 172 170 176 177 183 189 195 194 206 202 185 193 188 198 132 287 302 296 284 308 297 300 291 287 287 282 288 278 243 260 250 226 197 200 192 197 201 209 207
182 177 178 179 177 174 181 180 180 183 194 196 187 166 163 178 184 190 176 266 301 318 332 328 322 319 302 300 278 274 274 280 255 245 269 271 256 195 179 188 199 203 206
181 178 177 179 178 177 177 174 173 175 181 191 194 198 199 200 207 219 171 209 269 309 318 318 316 314 311 309 281 291 282 278 275 255 262 285 309 278 222 195 191 192 207
178 177 176 175 174 172 170 166 166 169 174 185 187 207 212 219 212 203 193 262 263 288 304 306 311 308 308 319 324 340 294 284 293 289 283 268 261 258 261 249 209 207 219
175 174 173 170 171 168 169 166 164 170 174 181 186 200 206 222 225 229 240 249 251 277 304 285 301 298 323 330 295 297 277 290 295 291 280 274 272 268 262 262 244 235 232
178 177 175 173 172 171 171 170 168 172 176 182 190 202 214 217 224 247 241 271 275 268 296 295 284 293 299 294 295 285 301 287 287 284 284 273 269 272 274 271 269 264 249
179 178 176 174 173 173 172 171 174 174 172 178 187 197 213 227 233 247 272 267 292 321 348 307 276 283 283 274 274 278 282 286 276 271 276 276 275 271 259 253 257 261 250
176 178 174 174 173 172 171 172 171 172 174 176 180 185 202 222 225 222 241 258 295 297 297 277 265 256 266 276 267 283 284 283 277 271 253 267 272 268 263 253 248 260 263
173 174 173 173 171 169 167 168 167 169 175 174 182 181 189 198 209 222 234 294 310 329 308 280 275 276 268 265 266 271 278 275 278 289 300 284 279 277 268 264 254 256 270
170 170 171 170 169 170 167 167 166 168 171 174 175 174 178 185 193 199 219 234 258 274 279 294 295 286 287 282 280 289 289 286 291 282 268 265 291 287 280 260 255 253 256
166 168 168 168 170 174 171 169 168 171 172 169 171 170 173 181 194 195 213 222 233 250 265 289 298 302 307 302 290 291 299 296 295 297 295 281 264 263 274 274 266 265 259
166 167 167 170 174 175 173 173 172 172 169 166 171 168 177 184 195 198 206 210 218 247 269 270 298 302 310 299 292 294 301 303 307 310 306 299 289 277 277 271 271 263 253
172 172 170 172 174 173 171 173 175 172 169 168 172 171 183 189 193 192 199 203 211 222 251 250 270 278 290 295 291 291 304 308 307 310 312 311 301 290 283 266 266 263 261
174 174 173 168 171 169 168 170 174 174 172 172 177 175 179 183 185 182 188 195 208 213 215 233 252 262 254 291 295 281 280 293 299 305 304 326 18 15 336 313 294 275 262
175 172 170 166 169 169 170 170 174 172 170 172 175 172 174 179 183 187 190 194 203 220 213 218 248 278 311 30 331 291 283 279 281 284 294 263 151 104 84 10 3 347 291
178 176 175 175 174 172 170 172 174 173 173 176 175 171 173 178 187 189 182 200 218 225 232 238 254 286 343 39 306 284 283 283 297 299 295 291 52 157 253 159 211 252 304
182 180 179 178 177 174 170 169 168 172 176 179 180 179 182 181 181 187 192 205 220 229 246 257 275 293 358 77 266 271 245 281 304 292 284 292 340 348 332 265 252 253 239
184 184 182 176 170 172 169 167 169 170 175 178 184 182 188 187 187 191 200 208 217 224 227 224 232 255 19 68 279 274 255 252 264 264 263 261 252 83 340 263 267 274 262
162 164 164 160 160 166 166 170 172 174 178 181 183 178 187 191 196 199 207 208 213 223 228 203 204 207 218 146 227 272 272 275 265 237 201 115 22 112 207 249 265 274 283
149 148 153 158 158 162 167 173 174 179 180 175 174 176 180 185 186 191 199 209 216 218 229 217 205 197 200 169 190 247 275 286 277 265 242 137 143 186 224 257 269 281 289
144 148 153 155 155 162 169 169 172 171 169 169 169 170 181 190 175 183 198 211 221 214 216 218 230 201 189 197 196 225 251 291 284 285 290 84 141 198 224 240 264 276 273
144 149 152 152 157 166 174 172 166 164 167 169 172 176 182 188 189 193 200 214 217 234 233 238 247 249 235 183 192 216 233 256 266 286 25 47 206 216 215 215 228 237 252
143 147 151 154 156 163 173 171 163 167 172 173 179 183 191 195 187 209 215 230 242 253 250 257 260 253 240 276 283 258 236 223 241 261 203 199 218 239 261 208 212 232 250
146 150 156 160 162 162 165 165 163 171 181 184 190 198 197 192 190 188 195 232 226 253 263 263 260 259 247 232 353 297 285 292 302 286 260 252 242 235 239 250 246 244 235
149 153 159 162 161 161 160 160 166 176 190 197 202 209 204 196 208 191 185 150 201 158 197 268 287 270 14 101 312 296 300 293 282 275 268 268 270 271 270 267 259 251 255
Height
1526 1528 1529 1530 1531 1531 1532 1532 1533 1533 1533 1534 1535 1535 1536 1535 1535 1535 1534 1533 1533 1532 1531 1532 1530 1530 1530 1530 1530 1530 1530 1530 1529 1530 1530 1530 1530 1530 1530 1531 1532 1533 1533
1524 1526 1527 1529 1530 1530 1531 1531 1532 1532 1532 1533 1533 1534 1534 1535 1535 1534 1534 1533 1532 1532 1532 1530 1530 1529 1529 1529 1528 1528 1528 1529 1528 1529 1528 1529 1530 1529 1529 1529 1530 1531 1531
1521 1524 1526 1527 1528 1529 1530 1531 1531 1531 1532 1532 1533 1533 1533 1534 1534 1533 1533 1532 1532 1531 1530 1530 1529 1529 1529 1528 1527 1527 1527 1527 1527 1527 1528 1528 1527 1528 1528 1528 1528 1529 1529
1519 1522 1524 1525 1527 1528 1529 1529 1529 1530 1531 1531 1532 1532 1533 1533 1533 1533 1533 1532 1531 1530 1530 1529 1528 1528 1528 1527 1526 1526 1526 1526 1526 1526 1526 1526 1526 1527 1527 1527 1527 1527 1527
1517 1520 1522 1524 1526 1527 1528 1528 1529 1529 1530 1530 1530 1531 1532 1532 1532 1532 1531 1531 1531 1529 1529 1528 1527 1526 1526 1525 1525 1524 1524 1524 1524 1524 1524 1524 1524 1525 1525 1525 1526 1526 1526
1515 1518 1520 1522 1524 1525 1526 1527 1528 1528 1529 1529 1530 1530 1530 1531 1531 1531 1531 1531 1530 1529 1528 1527 1526 1525 1525 1524 1524 1523 1523 1522 1522 1522 1523 1523 1523 1523 1523 1523 1523 1524 1524
1513 1516 1518 1520 1522 1523 1525 1526 1527 1527 1528 1528 1529 1529 1529 1530 1530 1530 1530 1530 1529 1528 1527 1527 1525 1524 1524 1523 1522 1522 1522 1521 1521 1521 1521 1521 1521 1521 1522 1522 1522 1522 1522
1511 1513 1516 1518 1520 1522 1523 1525 1525 1526 1527 1527 1528 1528 1528 1529 1530 1529 1529 1529 1529 1528 1527 1525 1524 1523 1523 1522 1521 1521 1520 1520 1519 1519 1519 1519 1519 1520 1519 1520 1520 1520 1520
1509 1512 1514 1517 1519 1520 1522 1523 1524 1525 1526 1526 1527 1527 1527 1528 1528 1528 1528 1528 1527 1527 1525 1524 1524 1523 1522 1521 1520 1520 1519 1519 1518 1518 1518 1517 1518 1518 1517 1518 1518 1519 1518
1507 1510 1513 1515 1517 1519 1520 1522 1522 1523 1524 1525 1526 1526 1526 1526 1526 1527 1527 1526 1525 1525 1524 1523 1523 1522 1521 1520 1519 1519 1518 1517 1517 1516 1516 1515 1516 1516 1515 1515 1516 1516 1516
1505 1509 1511 1513 1515 1517 1519 1520 1521 1522 1523 1524 1524 1525 1525 1525 1525 1525 1525 1525 1524 1523 1522 1522 1521 1521 1520 1519 1518 1518 1517 1516 1516 1515 1514 1514 1513 1514 1514 1514 1514 1514 1514
1505 1507 1510 1512 1514 1516 1517 1518 1519 1521 1521 1522 1523 1523 1524 1524 1524 1524 1524 1524 1523 1523 1522 1521 1521 1520 1519 1518 1518 1517 1516 1515 1514 1514 1513 1512 1512 1511 1512 1512 1512 1512 1512
1504 1506 1508 1510 1512 1514 1515 1517 1518 1519 1520 1521 1521 1522 1523 1523 1523 1523 1523 1522 1522 1521 1521 1520 1519 1519 1518 1517 1517 1516 1515 1514 1513 1512 1511 1510 1510 1509 1510 1509 1510 1510 1510
1502 1504 1506 1508 1510 1512 1513 1515 1516 1518 1519 1519 1520 1520 1521 1521 1522 1521 1521 1521 1520 1520 1519 1519 1518 1518 1517 1516 1515 1515 1514 1513 1512 1511 1510 1509 1508 1508 1508 1508 1507 1508 1508
1501 1503 1505 1507 1508 1510 1511 1513 1514 1515 1516 1517 1518 1519 1519 1520 1520 1520 1519 1519 1519 1519 1518 1518 1517 1516 1516 1515 1514 1513 1512 1511 1510 1509 1508 1508 1507 1506 1506 1507 1506 1506 1506
1499 1501 1503 1505 1506 1508 1509 1510 1512 1513 1514 1515 1516 1517 1517 1517 1517 1518 1518 1517 1517 1517 1516 1516 1516 1515 1514 1513 1512 1511 1511 1509 1509 1508 1507 1507 1506 1505 1505 1504 1504 1504 1504
1498 1500 1501 1502 1504 1505 1506 1508 1510 1511 1512 1513 1514 1515 1515 1515 1516 1516 1516 1515 1515 1515 1515 1514 1514 1513 1513 1512 1511 1510 1509 1508 1507 1506 1506 1506 1505 1504 1503 1503 1502 1502 1502
1496 1498 1499 1501 1502 1504 1505 1506 1508 1509 1510 1511 1511 1512 1513 1513 1513 1514 1513 1513 1513 1513 1513 1513 1512 1512 1511 1510 1509 1509 1508 1507 1505 1504 1504 1503 1503 1502 1502 1502 1501 1501 1500
1495 1496 1497 1499 1500 1502 1503 1504 1506 1507 1508 1509 1510 1510 1511 1511 1512 1512 1511 1511 1511 1511 1511 1510 1510 1509 1509 1508 1508 1507 1507 1505 1504 1503 1502 1501 1501 1500 1499 1499 1499 1499 1499
1493 1494 1496 1497 1498 1500 1501 1503 1504 1505 1506 1507 1508 1508 1509 1509 1510 1510 1509 1509 1509 1509 1509 1508 1507 1506 1506 1506 1505 1505 1505 1504 1503 1501 1500 1499 1499 1498 1497 1497 1497 1497 1497
1492 1493 1494 1496 1496 1498 1499 1501 1502 1503 1504 1505 1506 1506 1506 1507 1508 1508 1507 1506 1506 1506 1506 1505 1504 1504 1503 1503 1502 1502 1502 1502 1501 1500 1499 1498 1497 1496 1495 1495 1495 1494 1494
1490 1492 1493 1494 1495 1496 1497 1499 1500 1501 1502 1503 1503 1504 1504 1505 1505 1505 1504 1504 1504 1504 1503 1503 1502 1502 1501 1500 1500 1500 1499 1499 1499 1498 1498 1497 1495 1494 1493 1493 1492 1492 1492
1489 1491 1492 1493 1494 1495 1496 1497 1498 1499 1500 1500 1501 1502 1503 1503 1503 1502 1502 1502 1501 1502 1501 1501 1501 1501 1500 1499 1498 1498 1497 1496 1496 1496 1495 1494 1493 1492 1491 1490 1489 1489 1489
1489 1489 1490 1491 1492 1493 1494 1495 1496 1497 1498 1498 1499 1500 1500 1500 1500 1500 1500 1500 1499 1499 1499 1499 1499 1498 1498 1497 1496 1496 1495 1495 1494 1493 1492 1491 1491 1490 1489 1488 1487 1487 1487
1487 1488 1489 1490 1491 1492 1493 1494 1494 1495 1496 1496 1497 1498 1498 1498 1498 1498 1497 1497 1497 1497 1497 1497 1496 1496 1495 1494 1493 1493 1492 1492 1491 1490 1490 1490 1489 1488 1487 1487 1486 1485 1485
1486 1487 1488 1489 1490 1491 1491 1492 1493 1493 1494 1495 1495 1495 1496 1496 1496 1495 1495 1494 1494 1493 1493 1493 1493 1492 1492 1491 1491 1490 1489 1489 1488 1488 1488 1487 1487 1486 1485 1485 1484 1483 1482